Regional Weather Roundup
Issued by NWS Cleveland, OH

Home | Current Version | Previous Version | Text Only | Print | Product List | Glossary Off
Versions: 1 2 3 4 5 6 7 8 9 10 11 12 13 14 15 16 17 18 19 20 21 22 23 24 25 26 27 28 29 30 31 32 33 34 35 36 37 38 39 40 41 42 43 44 45 46 47 48 49 50

000
ASUS41 KCLE 310610
RWRCLE
OHIO REGIONAL WEATHER ROUNDUP
NATIONAL WEATHER SERVICE CLEVELAND, OH
200 AM EDT FRI OCT 31 2014

NOTE: "FAIR" INDICATES FEW OR NO CLOUDS BELOW 12,000 FEET WITH NO
SIGNIFICANT WEATHER AND/OR OBSTRUCTIONS TO VISIBILITY.

OHZ001>008-015>018-024>027-034-035-043-044-310700-
   NORTHWEST OHIO

CITY           SKY/WX    TMP DP  RH WIND       PRES   REMARKS
DEFIANCE       CLOUDY    45  36  70 SW5       30.01F
FINDLAY        CLOUDY    42  37  82 S5        30.00F
TOLEDO EXPRESS CLOUDY    45  34  65 SW6       30.00F
TOLEDO EXEC    CLOUDY    45  36  70 SW6       30.01F
LIMA           CLOUDY    43  36  76 S6        30.01F
$$

OHZ009>014-019>023-028>033-038-089-310700-
   NORTHEAST OHIO

CITY           SKY/WX    TMP DP  RH WIND       PRES   REMARKS
CLE-HOPKINS    CLOUDY    44  35  70 SW5       30.03F
CLE-LAKEFRONT    N/A    N/A N/A N/A MISG        N/A
CUY CO. ARPT   NOT AVBL
LORAIN-ELYRIA  CLOUDY    43  38  82 SW5       30.02F
ASHTABULA      CLOUDY    38  36  92 S3        30.02F
AKRON-CANTON   CLOUDY    45  38  76 CALM      30.01F
WOOSTER        CLOUDY    44  37  76 CALM      30.02F
MANSFIELD      CLOUDY    43  36  76 SW3       30.01F
YOUNGSTOWN     CLOUDY    42  38  85 CALM      30.01F
$$

OHZ042-051>053-060>062-070>072-077>081-310700-
  SOUTHWEST OHIO

CITY           SKY/WX    TMP DP  RH WIND       PRES   REMARKS
CINC-COVINGTON CLOUDY    46  35  65 CALM      30.02F
CINC-LUNKEN    CLOUDY    42  38  85 CALM      30.05S
HAMILTON       CLOUDY    42  39  89 CALM      30.04F
DAYTON         CLOUDY    44  36  73 CALM      30.03F
WRIGHT-PAT AFB CLOUDY    40  36  86 CALM      30.03F
DAYTON GENERAL CLOUDY    41  36  82 E3        30.02F
WILMINGTON     CLOUDY    38  33  82 SE3       30.02F
$$

OHZ036-037-039>041-045>050-054>059-063>069-073>076-082>088-310700-
  CENTRAL AND SOUTHEAST OHIO

CITY           SKY/WX    TMP DP  RH WIND       PRES   REMARKS
COLUMBUS       CLOUDY    45  34  65 CALM      30.03F
OSU AIRPORT    MOCLDY    38  34  85 W3        30.03F
BOLTON FIELD   MOCLDY    37  35  91 MISG      30.03F
RICKENBACK AFB CLOUDY    38  34  85 CALM      30.03S
NEWARK         CLOUDY    44  38  79 CALM      30.02F
MARION         CLOUDY    43  36  76 SW3       30.02F
LANCASTER      MOCLDY    38  34  85 CALM      30.03F
ZANESVILLE     CLOUDY    43  35  73 CALM      30.02F
NEW PHILLY     CLOUDY    45  40  82 CALM      30.03F
$$



USA.gov is the U.S. government's official web portal to all federal, state and local government web resources and services.